If you wish to contribute or participate in the discussions about articles you are invited to join SKYbrary as a registered user

EBCI

From SKYbrary Wiki

Jump to: navigation, search
Airport
Code EBCI
Name Brussels South Charleroi Airport
Region Europe
Territory Belgium BE.gif
Location Charleroi
Elevation

187.147202 m614 ft

Coordinates 50° 27' 46" N, 4° 27' 42" E
All Airports
in EB
EBAW, EBBR, EBCI, EBFS, EBLG, EBOS
Runways
Designator Length Width Surface
7/25 2550 m8,366.142 ft 45 m147.638 ft ASP


METAR
Observation EBCI 040820Z VRB02KT 9999 FEW030 17/10 Q1017 NOSIG
Station Charleroi / Gosselies
Elevation 192 metres
Date/Time 04 August 2014 08:20:00
Wind direction °
Wind speed 02 kts
Clouds few clouds
Clouds code FEW
Temperature 17°C
Dew point 10°C
Humidity 63%
QNH 1017 hPa
Weather condition n/a


Charleroi Brussels South Airport

ICAO: EBCI IATA: CRL

Description

Charleroi airport is an international airport located in Gosselies, 46 km24.838 nm
46,000 m
150,918.635 ft
south of Brussels.

Climatology

Temperate Marine climate/Oceanic climate (Köppen climate classification Cfb). Moderately cool summer and comparatively warm winter with a temperature range of only 14°C287.15 K
57.2 °F
516.87 °R
. Prevailing south-westerly winds from the Atlantic Ocean.

Maps

Terrain

Loading map...

Airport Layout

Loading map...


Accidents & Serious Incidents at or in vicinity of EBCI

None on SKYbrary

Personal tools